Regional Weather Roundup
Issued by NWS Sterling, VA

Home | Current Version | Previous Version | Graphics & Text | Print | Product List | Glossary On
Versions: 1 2 3 4 5 6 7 8 9 10 11 12 13 14 15 16 17 18 19 20 21 22 23 24 25 26 27 28
000
ASUS41 KLWX 241111
RWRLWX

REGIONAL WEATHER ROUNDUP
NATIONAL WEATHER SERVICE BALTIMORE MD/WASHINGTON DC
700 AM EDT SAT JUN 24 2017

Note: "FAIR" indicates few or no clouds below 12,000 feet
with no significant weather and/or obstructions to visibility.
 TC=TEMPERATURE CELSIUS

 * =Non NWS site. Station does not report precipitation (e.g. rain,
    snow, etc.), thunder, or fog.

DCZ001-MDZ009-015-VAZ040>042-051-053>054-241200-
WASHINGTON METRO

CITY           SKY/WX    TMP DP  RH WIND       PRES   REMARKS
WASHINGTON NAT MOSUNNY   74  69  85 W8        29.72R
DULLES         MOSUNNY   71  66  84 W17       29.73R
ANDREWS AFB    SUNNY     73  68  85 W13       29.71R
FT BELVOIR     SUNNY     72  67  85 NW13      29.72R
QUANTICO       LGT RAIN  74  70  87 NW7       29.74R
COLLEGE PARK*  SUNNY     71  67  87 W5        29.71R
LEESBURG*      SUNNY    N/A N/A N/A NW9       29.75R
MANASSAS*      SUNNY     72  68  87 W5        29.75R
GAITHERSBURG*  SUNNY     70  67  90 W7        29.74R

$$

MDZ006>007-011-014-241200-
BALTIMORE METRO

CITY           SKY/WX    TMP DP  RH WIND       PRES   REMARKS
BWI AIRPORT    CLOUDY    72  70  93 W7        29.69R
MD SCIENCE CTR   N/A     74  70  87 MISG      29.68R
MARTIN STATE   PTSUNNY   72  72 100 W12       29.68R
ANNAPOLIS      MOSUNNY   73  73 100 W7        29.68R
FORT MEADE*    CLOUDY    70  68  94 W6        29.72R

$$

MDZ012-015-019>023-241200-
MARYLAND EASTERN SHORE

CITY           SKY/WX    TMP DP  RH WIND       PRES   REMARKS
OCEAN CITY     CLOUDY    77  72  84 SW18G28   29.66F
SALISBURY      PTSUNNY   80  74  81 SW24G33   29.64F
BAY BRIDGE AP* CLOUDY    73  70  88 NW13G18   29.69R
CAMBRIDGE*     PTSUNNY   73  70  88 NW10G21   29.69R
EASTON*        PTSUNNY   75  70  83 NW9G21    29.72R

$$

MDZ017>025-241200-
SOUTHERN MARYLAND

CITY           SKY/WX    TMP DP  RH WIND       PRES   REMARKS
PATUXENT RIVER CLOUDY    74  69  85 NW15      29.71R
ST INIGOES     CLOUDY    75  70  84 W13G21    29.71R
LEONARDTOWN*   CLOUDY    72  68  88 W10       29.73R

$$

MDZ003>005-241200-
NORTH CENTRAL MARYLAND

CITY           SKY/WX    TMP DP  RH WIND       PRES   REMARKS
FREDERICK*     MOSUNNY   73  70  88 CALM      29.74
HAGERSTOWN APT PTSUNNY   70  66  87 W9        29.73R
WESTMINSTER*   SUNNY     72  68  88 W8        29.71R

$$

MDZ501>502-241200-
WESTERN MARYLAND

CITY           SKY/WX    TMP DP  RH WIND       PRES   REMARKS
OAKLAND*       NOT AVBL
CUMBERLAND*    PTSUNNY   72  64  78 N3        29.82R

$$

VAZ025>031-241200-
SHENANDOAH VALLEY

CITY           SKY/WX    TMP DP  RH WIND       PRES   REMARKS
WINCHESTER*    MOSUNNY   70  61  73 W10G17    29.76R
FRONT ROYAL*   SUNNY     72  63  73 CALM      29.76R
LURAY*         MOSUNNY   72  63  73 S7        29.79R
NEW MARKET*    MOSUNNY   67  65  93 CALM      29.81R
STAUNTON*      SUNNY     68  62  79 W5        29.86R
WAYNESBORO*    SUNNY     68  63  84 SW8       29.86R

$$

WVZ021-048>050-054>055-241200-
EASTERN WEST VIRGINIA PANHANDLE

CITY           SKY/WX    TMP DP  RH WIND       PRES   REMARKS
MARTINSBURG    PTSUNNY   71  63  75 SW8       29.74R
PETERSBURG*    CLOUDY    70  65  83 CALM      29.81R

$$

VAZ036>039-050-241200-
CENTRAL FOOTHILLS

CITY           SKY/WX    TMP DP  RH WIND       PRES   REMARKS
CHARLOTTESVILL SUNNY     74  66  76 VRB3      29.80R
CULPEPER*      SUNNY     75  66  73 W6        29.76R
ORANGE*        SUNNY     73  64  73 W12       29.77R
GORDONSVILLE*  SUNNY     75  65  71 W5        29.78R
WARRENTON*     SUNNY     75  64  69 W6        29.75R

$$

VAZ055>057-241200-
NORTH AND CENTRAL PIEDMONT

CITY           SKY/WX    TMP DP  RH WIND       PRES   REMARKS
FREDERICKSBRG* SUNNY     75  69  82 W3        29.75R
STAFFORD*      SUNNY     73  70  91 W5        29.79R

$$

NCZ024-NYZ072-PAZ021-071-VAZ022-071-241200-
OTHER REGIONAL OBSERVATIONS

CITY           SKY/WX    TMP DP  RH WIND       PRES   REMARKS
NEW YORK CITY  HVY RAIN  73  71  93 CALM      29.60F VSB 1
PHILADELPHIA   LGT RAIN  72  69  90 W7G20     29.62S
PITTSBURGH     MOSUNNY   65  65 100 W8        29.82R
ROANOKE        PTCLDY    69  62  78 W10       29.92R
RICHMOND       CLOUDY    81  69  67 NW18G24   29.77R
RALEIGH        CLOUDY    77  74  90 SW12      29.90R

$$

ANZ530>537-241200-
MARINE OBSERVATIONS

STATION/POSITION TIME  TEMP    WIND        PRES
                       AIR SEA DIR/SP/G
                 (UTC) (F)     (DEG/KT/KT) (MB)
THOMAS PT LIGHT  1100   73 78  290/ 14/ 16   N/A
BALT KEY BRIDGE  1048   74     280/ 14/ 16 1004.3R
COVE POINT       1048   74     320/ 12/ 19 1006.3R
LEWISETTA        1048   75 79  330/ 13/ 17 1006.3R
SOLOMONS ISLAND  1048   75 77  300/  9/ 13   N/A
PINEY POINT      1048          330/ 22/ 24   N/A

$$





USA.gov is the U.S. government's official web portal to all federal, state and local government web resources and services.